IRIDIUM 33 DEB, 35488

Orbit data source: Space-Track

IRIDIUM 33 DEB, 35488 is space debris in LEO originally from a launch on Sun, 14 Sep 1997 UTC launched from the Tyuratam Missile And Space Complex (TTMTR). The debris from Iridium 33, an American commercial communications satellite, has been tracked extensively since its accidental collision with the defunct Russian satellite Cosmos 2251 in 2009. This event, occurring at high speed in low Earth orbit (LEO), generated thousands of pieces of space debris, significantly increasing the risk of further collisions. The Iridium 33 debris cloud has impacted space traffic management and orbital debris mitigation strategies, making it a subject of ongoing study in space situational awareness.

Loading next visibility...
Identifier
35488, 1997-051QJ
Orbit
LEO
Country
Flag of USUS
Related business
Manufacturer
Unknown
Mission
Spacecraft
Bus & Motor
Unknown
Mass
Unknown
Launch date (UTC)
1997-09-14 (28 years ago)
Launch vehicle
Unknown
Launch site
Tyuratam Missile And Space Complex (TTMTR)
Object type
Payload
Rocket body
Debris
Shape & HBR
Unknown shape, 0.1 m
Radar Cross Section
Small (<0.1 m²)

Expand to show TLE details & history
Last TLE update: 21 hours ago

TLE from 21 hours ago
0 IRIDIUM 33 DEB
1 35488U 97051QJ  25349.31216602  .00008367  00000-0  10153-2 0  9990
2 35488  86.3246 299.6926 0029602  34.6907 325.6239 14.83131630883043
Epoch: 2025-12-15T07:29Z
TLE epoch observation values (Epoch: 2025-12-15T07:29:31.144Z)
Latitude
0.00007°
Longitude
103.1003°
Altitude
605.495 km
Speed
7.566 km/s
True Right ascension
19h 58m 46s
True Declination
0° 00' 00"
Sunlit
Object was in daylight at epoch
Visualization orbit readout
Latitude
Unknown
Longitude
Unknown
Altitude
Unknown
Speed
Unknown
Apparent Right ascension
Unknown
Apparent Declination
Unknown
Sunlit
N/A
Visualization observer readout
Local Sidereal Time
03:26:43
Azimuth
Unknown
Elevation
Unknown
Doppler factor
Unknown
Orbital elements
Apogee altitude
637.059 km
Perigee altitude
595.649 km
Semi-major axis
6,994.491 km
Eccentricity
0.00296
Inclination
86.3246°
RAAN
299.6926°
Arg. of periapsis
34.6907°
True anomaly
325.43179°
Mean anomaly
325.6239°
Eccentric anomaly
325.5279°
Mean motion
3.7103 °/min
Orbital period
97.03 mins
BSTAR
0.0010153

Documentation

Showing up to 5 results
|